Theta_e
332 333 319 319 320 321 321 322 322 316 315 318 319 318 317 313 313 312 312 309 307 310 314 324 321 318 315 317 339 343 343 345 343 341 342 341 339 342 344 340 336 346 339
326 331 326 319 320 320 319 322 322 317 318 320 319 320 320 317 314 314 315 313 308 310 314 328 327 317 318 317 334 343 342 342 341 340 342 340 339 340 344 339 342 343 337
326 329 329 323 317 315 317 319 318 319 320 321 321 323 323 321 316 318 318 316 312 309 318 328 330 324 319 318 326 341 343 342 341 340 339 340 342 339 343 338 341 336 335
326 329 329 329 317 314 314 317 316 317 318 319 321 323 324 324 319 320 324 323 319 313 323 326 330 330 321 322 320 338 342 342 342 341 340 342 342 340 342 339 337 333 334
326 326 328 324 317 315 315 315 316 317 318 319 319 321 324 322 323 325 325 324 324 322 326 326 327 329 326 323 319 331 340 341 342 342 341 341 343 342 342 338 333 335 334
323 322 323 322 320 315 316 316 317 318 319 319 319 318 318 319 320 324 325 325 326 325 325 324 325 329 330 324 323 321 336 340 341 342 341 341 342 341 342 336 332 331 330
322 321 323 323 320 316 315 317 319 316 316 316 316 317 317 319 322 323 323 323 326 327 324 323 326 327 330 329 322 319 332 339 340 341 341 342 341 341 341 337 332 331 326
322 323 324 324 321 319 316 316 316 315 314 314 318 320 320 320 320 320 320 322 325 327 324 321 323 326 328 330 327 321 326 337 339 341 342 341 340 341 340 337 333 332 329
322 322 322 322 323 320 321 321 318 317 319 320 320 320 320 320 320 321 321 325 325 326 324 321 315 322 326 330 329 323 322 337 339 342 340 340 340 340 339 335 335 330 330
321 322 322 321 320 322 325 326 325 322 321 321 320 319 318 319 319 321 321 322 325 325 324 317 315 316 325 329 330 324 321 335 339 341 342 340 339 339 337 335 332 331 331
322 322 322 321 323 325 326 325 325 326 325 323 323 322 320 324 326 326 327 326 325 325 321 324 321 315 319 326 329 325 321 335 338 342 340 338 334 338 336 333 332 329 329
323 323 321 321 326 328 327 325 326 326 326 324 321 319 321 324 324 326 326 326 325 325 321 322 323 317 313 329 330 325 322 335 338 338 338 332 337 336 334 333 331 329 333
324 323 320 324 328 328 327 326 326 326 325 325 323 324 322 320 323 325 324 325 324 324 325 324 324 322 324 329 332 329 326 335 337 339 337 332 334 336 336 332 331 329 325
324 322 325 328 329 330 328 327 326 326 327 325 325 325 323 324 323 323 323 325 324 326 327 326 327 323 324 329 332 329 325 334 336 338 338 333 333 333 334 330 329 329 332
324 322 327 329 330 330 327 327 328 326 325 326 325 325 323 322 323 321 324 324 324 324 325 325 328 325 330 326 333 329 326 335 335 337 338 338 334 336 335 333 329 330 332
322 326 328 329 330 329 327 327 326 326 326 326 326 324 324 324 323 321 321 322 324 323 325 326 328 328 326 329 332 330 330 335 334 335 338 338 336 335 335 332 328 328 331
322 327 329 328 328 327 327 328 326 326 327 326 326 325 326 324 322 322 322 323 322 324 325 327 326 328 327 329 330 329 331 333 333 335 338 337 337 337 335 334 330 332 333
324 326 328 328 327 328 329 329 327 326 324 324 324 318 321 323 323 324 322 324 324 325 326 327 328 327 328 329 328 329 331 329 333 336 338 336 336 336 331 331 334 328 331
324 326 327 328 328 329 329 330 329 326 326 325 322 321 320 322 324 324 323 321 321 323 326 326 326 327 328 329 328 329 330 330 333 336 336 335 335 334 332 334 330 328 327
324 327 328 327 329 326 329 329 330 326 324 324 323 320 321 322 324 325 323 323 322 323 326 327 327 327 328 328 327 331 331 330 335 336 337 335 335 334 331 330 327 327 327
323 327 329 327 328 327 329 330 329 330 329 327 326 324 324 324 324 326 324 325 323 325 325 327 326 326 327 329 327 329 329 333 335 336 336 333 331 329 330 328 326 326 328
324 325 328 327 328 329 331 331 329 328 328 327 326 326 324 325 325 325 325 326 327 324 325 328 328 328 328 329 329 330 334 335 334 334 334 332 331 329 329 327 328 329 328
323 326 327 328 330 331 331 331 331 328 329 327 327 328 326 324 324 325 326 326 326 327 325 325 326 329 328 326 330 331 332 332 332 332 332 331 329 328 328 328 329 327 330
323 326 326 329 331 332 326 331 331 329 329 329 325 327 328 326 325 326 327 327 327 327 327 327 327 329 329 329 329 332 331 329 332 331 329 328 328 329 329 330 328 329 329
322 326 327 329 331 332 331 331 331 331 328 327 326 325 328 327 327 326 326 326 327 327 328 328 328 329 328 329 331 331 330 331 331 330 329 331 330 330 329 330 330 331 328
322 325 327 328 328 331 331 330 331 330 329 328 327 324 326 327 327 327 327 326 326 326 327 327 327 329 329 328 331 330 331 329 330 329 329 330 329 330 330 331 330 330 328
Wind_Speed
3 6 5 6 7 9 11 13 15 17 16 14 14 14 13 12 13 15 16 14 14 13 12 12 11 13 18 19 20 21 27 24 23 24 20 16 9 8 9 8 12 15 13
2 5 7 8 9 12 15 15 16 17 16 17 18 18 17 16 15 16 18 17 15 13 11 12 11 13 17 19 19 20 24 27 28 26 22 19 13 10 11 12 12 15 13
2 5 10 8 9 13 15 16 17 18 17 20 22 21 20 20 19 16 17 18 17 15 12 13 12 11 16 18 18 19 22 26 28 28 26 20 15 13 14 18 15 7 13
3 4 6 13 14 16 14 16 19 19 21 23 22 22 22 23 24 20 16 16 18 17 14 15 14 13 15 17 18 17 19 25 27 27 25 18 18 18 18 19 19 15 14
4 6 8 13 17 15 14 17 20 21 23 24 24 24 23 23 24 23 23 20 19 18 15 16 16 17 15 17 18 17 17 19 24 23 27 23 21 21 21 22 20 17 15
7 8 12 17 18 18 18 20 20 22 23 25 27 27 27 27 27 26 24 24 22 17 17 17 18 16 17 17 19 17 15 17 18 22 24 25 22 23 26 30 32 24 20
8 9 9 16 19 18 20 22 23 24 27 27 28 28 29 29 29 28 27 27 24 20 19 20 19 20 17 17 18 18 16 15 16 18 21 27 27 23 25 28 31 31 27
6 6 7 13 17 17 18 20 24 26 27 27 28 30 31 32 33 34 30 27 26 23 20 21 22 20 18 18 17 18 17 15 15 16 21 24 31 30 27 27 32 28 23
3 5 8 10 13 18 18 20 21 23 25 27 29 32 33 32 31 31 26 25 26 25 21 21 21 21 21 18 19 18 18 16 15 19 21 23 25 22 19 31 30 28 23
7 7 10 12 13 14 13 19 26 22 22 26 27 29 30 26 24 22 21 24 25 23 20 17 17 22 20 18 19 20 19 16 16 18 23 19 20 24 30 32 31 28 24
9 10 12 12 12 12 13 14 19 19 22 21 19 18 18 14 13 16 16 20 23 21 22 19 17 21 22 20 19 20 19 15 17 21 19 19 15 25 31 31 30 30 25
9 10 12 12 12 11 11 13 15 17 19 21 15 14 14 13 14 13 16 15 20 24 23 20 17 19 23 14 16 20 18 15 19 19 18 18 21 26 29 30 29 27 25
7 9 10 12 11 11 11 12 12 13 18 13 16 12 13 13 11 15 17 17 17 21 22 19 16 16 15 16 16 16 16 17 20 20 16 18 21 19 30 30 27 29 28
7 8 9 9 10 10 10 10 11 13 11 11 12 12 10 8 11 14 14 16 19 20 18 20 15 13 15 18 17 18 17 17 20 21 20 18 23 21 25 31 30 29 26
6 7 8 9 9 11 11 9 13 15 9 10 10 11 11 11 13 11 12 16 18 23 24 21 16 18 16 20 19 21 18 18 19 22 23 21 26 28 28 29 31 27 26
6 6 8 8 8 9 13 15 14 12 10 10 10 10 11 10 9 9 9 16 20 26 23 21 18 15 19 20 19 16 17 17 18 20 22 22 30 26 25 31 36 31 28
5 6 6 7 8 11 15 14 14 11 11 9 10 9 10 12 9 8 5 7 14 21 23 20 18 17 17 20 20 17 16 18 18 18 21 25 31 30 27 32 30 29 29
4 5 5 6 7 9 11 12 12 11 12 10 9 10 11 12 10 8 5 6 12 20 21 18 17 17 19 20 20 19 17 21 17 18 22 26 29 24 27 29 29 28 28
4 4 4 5 6 9 10 10 11 12 10 11 10 11 12 12 11 9 7 9 11 17 20 19 21 20 22 20 18 17 18 17 16 20 23 26 29 28 33 26 27 27 29
4 4 3 4 6 10 10 9 10 10 8 7 9 9 10 11 10 10 9 11 14 14 17 18 21 22 21 20 19 14 14 14 15 20 26 26 27 30 30 32 31 29 27
5 4 3 4 6 8 9 9 10 7 6 8 9 10 8 12 10 9 9 11 14 15 17 17 21 22 20 19 20 11 16 15 19 22 26 28 28 27 26 28 30 29 30
6 5 2 2 5 6 7 8 5 5 3 9 14 12 4 4 7 9 11 10 10 13 16 18 21 21 21 22 16 20 15 17 18 25 28 27 27 27 27 30 26 27 28
7 6 3 1 2 5 7 8 6 4 5 7 11 11 7 4 6 9 12 14 14 11 14 18 19 15 14 18 17 16 13 6 20 23 26 25 30 30 27 27 26 29 27
8 7 4 2 2 4 6 6 9 7 4 5 7 10 9 4 5 10 13 14 15 14 16 16 16 16 18 16 23 14 14 21 15 21 25 27 29 24 26 24 27 26 26
10 8 6 4 3 2 6 7 8 8 11 2 2 9 11 9 5 6 15 17 16 16 14 17 18 19 19 18 16 18 18 25 26 25 27 29 25 24 22 22 26 25 28
11 10 7 5 4 1 3 6 8 9 11 9 2 5 8 9 5 7 12 14 17 17 16 18 18 20 20 20 17 20 21 26 22 30 36 32 28 21 23 22 31 28 25
Wind_Direction
153 221 295 316 311 303 299 301 308 314 312 309 303 303 305 310 305 303 305 300 288 273 274 279 271 241 226 221 222 218 212 210 208 213 219 221 230 209 196 173 145 158 156
120 227 282 305 305 307 306 295 297 300 301 298 294 291 294 298 298 296 294 292 285 277 261 268 275 246 230 224 222 222 215 215 216 217 220 224 228 216 200 160 149 179 165
147 211 282 282 302 305 296 289 287 284 291 290 288 286 290 292 297 297 292 287 283 272 259 247 260 257 236 228 223 224 218 217 218 217 220 221 222 213 204 164 176 162 167
250 238 236 268 298 310 296 278 278 282 285 284 285 285 285 288 295 292 290 290 283 270 256 245 244 246 238 231 227 222 221 218 217 219 218 216 208 212 207 177 170 182 170
257 271 267 278 301 298 278 271 279 278 279 282 283 282 282 281 284 284 286 284 284 267 255 251 241 245 235 234 230 224 221 221 216 218 222 213 210 202 194 175 159 170 164
287 282 284 284 294 281 273 273 278 277 277 277 277 277 277 278 279 277 277 275 273 264 240 239 241 246 233 232 232 226 224 219 215 220 219 211 213 204 194 182 169 162 158
289 281 291 282 288 277 273 267 267 275 277 279 280 277 276 275 276 275 273 270 262 259 244 230 235 233 234 227 230 229 221 219 213 215 217 222 217 217 208 198 180 165 153
283 281 292 291 298 295 281 275 276 278 278 280 280 280 278 276 276 276 271 262 258 250 241 230 229 236 237 228 223 228 222 216 208 210 210 218 219 217 209 204 180 168 148
268 294 298 295 288 307 306 299 288 281 279 280 281 281 280 277 273 270 267 254 252 242 232 234 226 231 232 230 222 219 219 214 204 201 216 211 204 202 207 186 178 161 157
296 307 297 301 296 292 290 293 295 296 285 287 287 288 286 279 274 270 267 252 243 237 231 228 227 226 231 226 222 217 213 209 199 195 197 202 213 192 180 176 165 161 166
293 302 306 296 290 291 294 293 292 310 306 308 299 294 292 289 273 263 257 248 239 224 220 225 229 225 228 228 221 215 212 210 190 188 196 186 208 196 177 173 167 156 168
291 294 303 296 290 299 302 295 297 297 280 292 295 291 285 278 267 240 250 246 231 217 218 224 229 226 225 224 225 214 210 213 189 191 201 189 192 184 174 172 169 166 168
290 303 297 292 293 298 293 293 298 282 286 293 307 302 296 298 272 255 234 243 236 221 222 228 227 227 218 213 204 212 207 210 194 191 196 185 172 181 176 169 170 163 159
286 305 302 295 298 296 298 300 285 284 285 292 307 289 291 297 280 266 250 219 221 220 216 206 205 220 204 210 199 199 200 206 197 190 196 197 185 183 179 173 170 168 171
290 297 304 301 301 301 305 300 281 287 291 279 287 280 277 259 265 265 247 218 215 212 215 207 196 199 204 208 197 192 200 199 199 191 202 200 189 186 185 186 176 169 164
278 294 303 310 304 307 305 294 293 289 286 290 283 281 269 276 274 284 255 223 213 204 201 205 189 195 210 184 192 191 191 204 198 197 201 198 193 198 188 173 169 166 162
266 290 307 317 317 320 318 309 301 289 281 274 261 261 283 274 275 283 258 242 204 188 189 180 178 190 187 175 190 187 194 210 199 197 196 189 188 194 184 180 169 169 165
248 279 303 310 324 318 309 306 311 301 294 282 269 264 254 260 263 270 236 202 167 173 166 173 176 180 183 178 182 191 197 205 197 190 183 182 182 186 174 175 172 160 165
236 258 293 308 329 318 314 317 319 313 290 283 274 269 259 252 249 249 226 184 178 176 169 176 176 182 178 180 180 192 197 197 195 186 176 182 183 183 186 178 166 168 173
219 239 289 327 324 323 339 329 333 334 327 304 288 271 272 255 239 234 222 194 177 175 176 180 179 177 172 176 172 174 179 187 185 175 179 180 180 179 174 168 162 167 172
211 227 264 307 318 334 345 340 339 352 12 350 336 301 280 256 235 229 194 177 172 175 176 171 172 174 176 174 172 169 180 172 168 173 174 163 164 160 163 161 165 168 177
206 210 226 311 318 344 330 350 14 15 27 30 26 31 63 169 200 192 166 166 169 172 169 171 168 170 176 177 166 158 149 158 157 164 151 154 169 164 164 158 168 171 173
196 193 185 268 357 7 11 16 3 342 336 11 31 27 41 136 174 173 173 167 174 168 165 166 167 177 171 165 172 164 145 159 139 158 162 160 164 160 165 167 174 175 173
188 178 168 165 80 5 45 358 338 349 324 322 28 32 23 60 151 178 171 174 172 173 189 176 172 171 167 168 170 171 174 162 146 131 156 158 171 165 163 170 172 177 177
178 177 171 162 112 46 26 22 12 3 10 341 33 26 33 68 92 161 179 179 181 191 181 183 174 170 165 170 167 153 153 165 157 143 144 149 149 159 165 174 177 175 156
175 177 174 171 140 126 30 21 26 19 12 28 49 45 48 48 72 123 156 176 187 189 185 173 169 165 166 160 153 160 163 166 161 144 144 149 141 145 158 180 175 169 170